New River MCAS, NC

5:39 AM EDT on October 18, 2017 (GMT -0400)
New River Marine Corps Air Station

Weather History for KNCA - January, 2013

Change the Weather History Date:

Tuesday, January 29, 2013

  Actual Average Record
Temperature  
Mean Temperature 63 °F -  
Max Temperature 75 °F 53 °F 78 °F (2002)
Min Temperature 51 °F 33 °F 21 °F (2000)
Degree Days  
Heating Degree Days 2    
Growing Degree Days 13 (Base 50)    
Moisture  
Dew Point 52 °F    
Average Humidity 81    
Maximum Humidity 94    
Minimum Humidity 46    
Precipitation  
Precipitation 0.00 in - - ()
Sea Level Pressure  
Sea Level Pressure 30.22 in    
Wind  
Wind Speed 7 mph (WSW)    
Max Wind Speed 15 mph    
Max Gust Speed 23 mph    
Visibility 6 miles    
Events Fog    
Averages and records for this station are not official NWS values.
T = Trace of Precipitation, MM = Missing Value Source: NWS Daily Summary

Daily Weather History Graph

Daily Weather History Graph

Search for Another Location

Airport or City:

Trip Planner

Search our weather history database for the weather conditions in past years. The results will help you decide how hot, cold, wet, or windy it might be!

Date:

Astronomy

Jan. 29, 2013 Rise Set
Actual Time 7:09 AM EST 5:36 PM EST
Civil Twilight 6:43 AM EST 6:02 PM EST
Nautical Twilight 6:13 AM EST 6:33 PM EST
Astronomical Twilight 5:43 AM EST 7:03 PM EST
Moon 8:20 PM EST (1/29) 8:14 AM EST (1/29)
Length of Visible Light 11h 19m
Length of Day
10h 26m
Waning Gibbous, 94% of the Moon is Illuminated
Jan 29
Waning Gibbous
Feb 3
Last Quarter
Feb 10
New
Feb 17
First Quarter
Feb 25
Full

Hourly Weather History & Observations

Time (EST) Temp. Dew Point Humidity Pressure Visibility Wind Dir Wind Speed Gust Speed Precip Events Conditions
12:08 AM 53.6 °F 51.8 °F 94% 30.27 in 1.0 mi SW 6.9 mph - N/A   Overcast
12:22 AM 53.6 °F 51.8 °F 94% 30.27 in 1.2 mi WSW 8.1 mph - N/A   Overcast
12:31 AM 53.6 °F 51.8 °F 94% 30.27 in 0.8 mi WSW 6.9 mph - N/A   Mist
12:56 AM 54.0 °F 52.0 °F 93% 30.28 in 0.8 mi WSW 5.8 mph - N/A   Mist
1:27 AM 53.6 °F 51.8 °F 94% 30.26 in 0.5 mi WSW 6.9 mph - N/A Fog Fog
1:56 AM 54.0 °F 52.0 °F 93% 30.27 in 0.5 mi WSW 5.8 mph - N/A Fog Fog
2:20 AM 53.6 °F 51.8 °F 94% 30.25 in 0.8 mi WSW 5.8 mph - N/A   Mist
2:56 AM 54.0 °F 52.0 °F 93% 30.25 in 0.5 mi SW 6.9 mph - N/A Fog Fog
3:24 AM 53.6 °F 51.8 °F 94% 30.25 in 1.2 mi West 6.9 mph - N/A   Overcast
3:38 AM 53.6 °F 51.8 °F 94% 30.24 in 2.5 mi WSW 5.8 mph - N/A   Mostly Cloudy
3:44 AM 53.6 °F 51.8 °F 94% 30.24 in 3.0 mi WSW 5.8 mph - N/A   Scattered Clouds
3:56 AM 53.1 °F 51.1 °F 93% 30.25 in 4.0 mi WSW 5.8 mph - N/A   Clear
4:56 AM 52.0 °F 48.9 °F 89% 30.25 in 5.0 mi West 8.1 mph - N/A   Clear
5:56 AM 51.1 °F 48.0 °F 89% 30.25 in 6.0 mi WSW 5.8 mph - N/A   Clear
6:56 AM 51.1 °F 46.9 °F 86% 30.25 in 6.0 mi West 4.6 mph - N/A   Clear
7:56 AM 51.1 °F 46.9 °F 86% 30.26 in 6.0 mi West 3.5 mph - N/A   Clear
8:56 AM 55.9 °F 48.9 °F 77% 30.26 in 6.0 mi West 8.1 mph - N/A   Haze
10:56 AM 66.9 °F 55.0 °F 66% 30.24 in 10.0 mi West 15.0 mph 21.9 mph N/A   Clear
11:56 AM 70.0 °F 55.0 °F 59% 30.21 in 9.0 mi West 13.8 mph 19.6 mph N/A   Clear
12:56 PM 73.0 °F 55.0 °F 53% 30.19 in 10.0 mi West 11.5 mph 23.0 mph N/A   Clear
1:56 PM 73.9 °F 53.1 °F 48% 30.16 in 10.0 mi West 12.7 mph 20.7 mph N/A   Clear
2:56 PM 75.0 °F 53.1 °F 46% 30.16 in 10.0 mi West 9.2 mph - N/A   Partly Cloudy
3:56 PM 73.9 °F 53.1 °F 48% 30.16 in 10.0 mi WSW 8.1 mph - N/A   Mostly Cloudy
4:56 PM 69.1 °F 55.9 °F 63% 30.15 in 10.0 mi South 6.9 mph - N/A   Scattered Clouds
5:56 PM 63.0 °F 55.0 °F 75% 30.15 in 10.0 mi South 6.9 mph - N/A   Clear
6:56 PM 57.9 °F 52.0 °F 81% 30.16 in 10.0 mi South 3.5 mph - N/A   Clear
7:56 PM 62.1 °F 55.0 °F 78% 30.16 in 10.0 mi South 4.6 mph - N/A   Clear
8:56 PM 62.1 °F 55.0 °F 78% 30.17 in 10.0 mi SSW 4.6 mph - N/A   Clear
9:56 PM 61.0 °F 55.9 °F 83% 30.17 in 10.0 mi SSW 5.8 mph - N/A   Clear
10:56 PM 60.1 °F 55.9 °F 86% 30.17 in 8.0 mi SSW 6.9 mph - N/A   Clear
11:56 PM 60.1 °F 55.9 °F 86% 30.17 in 8.0 mi SSW 5.8 mph - N/A   Clear